Tracking 19817 objects as of 17-Aug-2019
HD Live streaming from Space Station
objects crossing your sky now

FENGYUN 1C DEB

Track FENGYUN 1C DEB now!
10-day predictions


NORAD ID: 33605
Int'l Code: 1999-025DCN
Perigee: 844.1 km
Apogee: 931.9 km
Inclination: 98.9 °
Period: 102.6 minutes
Semi major axis: 7259 km
RCS: 0.0013 m2 (small)
Launch date: May 10, 1999
Source: People's Republic of China (PRC)
Launch site: Taiyaun Space Center, China (TSC)

Note: This is SATELLITE DEBRIS
aabbcc
Your satellite tracking list
Your tracking list is empty




NASA's NSSDC Master Catalog

Two Line Element Set (TLE):
1 33605U 99025DCN 19228.32862477 -.00000147  00000-0 -65238-4 0  9995
2 33605  98.8729 275.1620 0060484  80.4127 343.0123 14.03738888598287
Source of the keplerian elements: AFSPC